This is the latest recevied weather packets stored in our database for station/object DG9MHV-10. If no packets are shown the sender has not sent any weather packets the latest 10 day(s).
| Time | Temp. | Humidity | Pressure | Rain* | Wind** | Luminosity | Snow |
|---|---|---|---|---|---|---|---|
| 1777875071 | 22.22° C | 100% | 1015.5 hPa | - | - | - | - |
| 1777874171 | 21.67° C | 100% | 1015.5 hPa | - | - | - | - |
| 1777873271 | 22.22° C | 100% | 1015.4 hPa | - | - | - | - |
| 1777872371 | 22.22° C | 100% | 1015.5 hPa | - | - | - | - |
| 1777871471 | 19.44° C | 100% | 1015.4 hPa | - | - | - | - |
| 1777870570 | 15° C | 100% | 1015.3 hPa | - | - | - | - |
| 1777869670 | 11.11° C | 100% | 1015.3 hPa | - | - | - | - |
| 1777868770 | 10.56° C | 100% | 1015.2 hPa | - | - | - | - |
| 1777867870 | 11.11° C | 100% | 1015.3 hPa | - | - | - | - |
| 1777866970 | 11.11° C | 100% | 1015.4 hPa | - | - | - | - |
| 1777866070 | 11.67° C | 100% | 1015.5 hPa | - | - | - | - |
| 1777865170 | 11.67° C | 100% | 1015.5 hPa | - | - | - | - |
| 1777864269 | 11.67° C | 100% | 1015.4 hPa | - | - | - | - |
| 1777863369 | 11.67° C | 100% | 1015.6 hPa | - | - | - | - |
| 1777862469 | 11.67° C | 100% | 1015.7 hPa | - | - | - | - |
| 1777861569 | 11.67° C | 100% | 1015.7 hPa | - | - | - | - |
| 1777860669 | 11.67° C | 100% | 1015.8 hPa | - | - | - | - |
| 1777859772 | 11.67° C | 100% | 1015.7 hPa | - | - | - | - |
| 1777858869 | 11.67° C | 100% | 1015.8 hPa | - | - | - | - |
| 1777857969 | 12.22° C | 100% | 1015.7 hPa | - | - | - | - |
| 1777857069 | 12.78° C | 100% | 1015.8 hPa | - | - | - | - |
| 1777856169 | 12.78° C | 100% | 1015.8 hPa | - | - | - | - |
| 1777855269 | 12.78° C | 100% | 1015.9 hPa | - | - | - | - |
| 1777854369 | 12.22° C | 100% | 1016 hPa | - | - | - | - |
| 1777853469 | 12.78° C | 100% | 1016.1 hPa | - | - | - | - |
* Rain since midnight (hover to see other rain measurements)
** Current wind speed in m/s (hover to see current wind gust speed)